Probability
3 3 3 1 1 3 5 3 1 0 0 1 5 9 11 10 8 5 2 1 1 2 5 8 13 14 12 11 12 14 15 14 14 13 13 14 14 12 10 9 8 7 7
1 2 3 2 2 3 4 3 1 0 0 1 4 7 9 9 7 5 3 1 0 2 5 8 11 13 13 12 12 14 14 14 13 13 14 14 13 11 10 9 7 5 5
0 1 3 4 4 4 4 3 1 0 0 1 3 6 8 7 6 6 3 1 0 1 5 8 9 11 12 11 11 13 14 13 12 12 12 13 12 10 9 8 6 4 3
0 1 2 4 5 5 4 2 1 1 0 1 3 7 8 6 5 5 4 1 0 0 2 5 7 9 10 9 10 12 13 13 11 11 11 12 12 10 8 8 7 5 5
0 0 1 3 5 5 3 1 1 1 0 0 2 5 7 5 4 4 3 1 0 0 0 1 3 6 7 7 8 9 11 12 11 10 11 11 11 11 9 8 7 6 7
0 0 0 2 4 4 2 0 0 0 0 0 0 2 4 4 3 3 3 2 1 0 0 0 0 1 3 5 7 8 9 10 10 10 10 10 10 9 8 7 6 7 7
0 0 0 1 3 4 1 0 0 0 0 0 0 1 3 3 3 3 3 2 1 0 0 0 0 0 1 3 6 7 7 8 9 9 9 10 9 8 7 7 7 6 6
0 0 0 0 2 3 2 0 0 0 0 0 0 1 2 2 2 2 2 1 0 0 0 0 0 0 1 2 4 4 4 5 7 8 8 8 8 7 7 7 7 6 5
0 0 0 0 0 1 1 0 0 0 0 0 0 0 1 1 1 1 1 0 0 0 0 0 0 0 0 1 2 2 2 3 4 5 5 6 6 7 8 8 7 6 4
1 0 0 0 0 0 0 0 0 0 0 0 0 0 0 0 1 0 0 0 0 0 0 0 0 0 0 1 2 2 1 2 3 4 4 4 4 6 8 9 8 7 6
3 1 0 0 0 0 0 0 0 0 0 0 0 0 0 0 1 1 0 0 0 0 0 0 0 0 0 1 2 3 2 2 3 3 3 3 4 6 8 9 9 8 7
3 2 0 0 0 0 0 0 0 0 0 0 0 0 0 0 0 1 0 0 0 0 0 0 0 0 0 0 1 2 1 1 2 2 3 3 3 4 6 7 7 7 6
2 1 0 0 0 0 0 0 0 0 0 0 0 0 0 0 0 0 0 0 0 0 0 0 0 0 0 0 0 1 1 0 1 1 1 2 2 3 3 4 5 6 5
0 0 0 0 0 0 0 0 0 0 0 0 0 0 0 0 0 0 0 0 0 0 0 0 0 0 0 0 0 1 1 1 0 0 0 1 1 1 1 2 3 3 4
0 0 0 0 0 0 0 0 0 0 0 0 0 0 0 0 0 0 0 0 0 0 0 0 0 0 0 0 0 2 2 1 0 0 0 0 0 0 0 1 1 1 1
0 0 0 0 0 0 0 0 0 0 0 0 0 0 0 0 0 0 0 0 0 0 0 0 0 0 0 0 0 1 1 1 0 0 0 0 0 0 0 0 0 0 0
0 0 0 0 0 0 0 0 0 0 0 0 0 0 0 0 0 0 0 0 0 0 0 0 0 0 0 0 0 0 0 0 0 0 0 0 0 0 0 0 0 0 0
1 2 1 0 0 0 0 0 0 0 0 0 0 0 0 0 0 0 0 0 0 0 0 0 0 0 0 0 0 0 0 0 0 0 0 0 0 0 0 0 0 0 0
2 3 2 0 0 0 0 0 0 0 0 0 0 0 0 0 0 0 0 0 0 0 0 0 0 0 0 0 0 0 0 0 0 0 0 0 0 0 0 0 0 0 0
2 1 1 0 0 0 0 0 0 0 0 0 0 0 0 0 0 0 0 0 0 0 0 0 0 0 0 0 0 0 0 0 0 0 0 0 0 0 0 0 0 0 0
1 1 0 0 0 0 0 0 0 0 0 0 0 0 0 0 0 0 0 0 0 0 0 0 0 0 0 0 0 0 0 0 0 0 0 0 0 0 0 0 0 0 0
1 1 1 0 0 0 0 0 0 0 0 0 0 0 0 0 0 0 0 0 0 0 0 0 0 0 0 0 0 0 0 0 0 0 0 0 0 0 0 0 0 0 0
2 2 1 0 0 0 0 0 0 0 0 0 0 0 0 0 0 0 0 0 0 0 0 0 0 0 0 0 0 0 0 0 0 0 0 0 0 0 0 0 0 0 0
1 1 0 0 0 0 0 0 0 0 0 0 0 0 0 0 0 0 0 0 0 0 0 0 0 0 0 0 0 0 0 0 0 0 0 0 0 0 0 0 0 0 0
0 0 0 0 0 0 0 0 0 0 0 0 0 0 0 0 0 0 0 0 0 0 0 0 0 0 0 0 0 0 0 0 0 0 0 0 0 0 0 0 0 0 0
0 0 0 0 0 0 0 0 0 0 0 0 0 0 0 0 0 0 0 0 0 0 0 0 0 0 0 0 0 0 0 0 0 0 0 0 0 0 0 0 0 0 0
Wind_Speed
2 2 2 2 3 3 3 3 4 4 4 5 5 6 6 6 6 5 3 6 7 9 10 10 9 10 10 10 9 9 8 8 9 10 11 12 12 12 12 12 12 12 12
2 2 3 3 3 3 3 4 4 4 4 4 6 6 6 6 6 6 5 6 8 9 10 11 11 10 11 11 11 10 10 10 10 10 10 11 12 13 13 13 13 13 13
3 3 3 3 3 3 4 4 4 4 5 5 6 7 6 7 6 7 6 5 6 8 9 10 11 11 11 11 11 11 10 11 11 10 10 10 11 12 13 14 14 14 14
4 3 3 3 3 3 3 4 4 4 5 5 5 5 5 5 7 7 6 6 5 5 7 9 10 11 11 11 11 11 11 11 11 11 11 11 11 13 14 14 14 14 15
4 4 3 3 4 3 3 4 4 4 5 5 5 6 5 6 6 6 7 7 6 6 5 6 9 10 11 11 11 11 10 10 11 12 12 13 12 13 14 14 14 14 14
4 4 4 4 4 3 4 4 5 5 5 5 5 5 5 6 6 6 6 5 5 6 6 6 6 6 8 10 10 11 11 11 11 12 12 13 14 14 14 14 14 14 15
5 4 4 4 4 4 5 5 5 5 5 4 4 5 5 5 6 5 4 4 5 6 6 6 5 5 4 8 9 10 11 11 11 12 12 13 14 15 15 14 14 15 15
4 4 4 4 4 4 5 5 5 4 4 3 3 3 3 4 4 4 4 4 5 4 5 5 5 5 5 5 5 8 10 12 13 12 13 13 14 15 16 15 15 15 15
5 5 5 5 5 5 5 6 6 6 4 4 4 3 3 4 3 3 5 4 4 4 5 5 6 6 6 5 5 6 8 11 13 13 14 14 14 14 16 15 15 15 15
5 5 6 6 6 5 6 6 6 6 6 5 4 4 5 4 3 3 3 4 5 5 6 5 6 6 6 5 5 7 8 10 12 13 14 14 15 15 15 15 15 16 15
4 5 5 6 6 6 7 7 6 6 6 6 5 4 4 4 5 4 5 4 4 4 5 5 5 5 6 6 5 5 7 9 11 12 13 13 14 14 15 15 15 15 14
4 5 5 5 6 6 7 7 6 7 6 7 5 5 5 5 4 4 5 5 4 4 5 4 4 4 4 5 5 6 8 9 10 11 12 13 14 13 14 14 14 13 13
3 4 4 4 5 5 6 6 6 6 6 7 7 5 5 5 4 4 4 4 5 4 5 4 4 3 4 4 4 5 7 9 10 11 12 12 12 12 14 13 13 13 13
4 5 4 4 5 5 5 5 5 6 5 6 7 6 4 4 4 4 4 4 5 5 4 4 2 3 3 4 4 7 6 7 9 10 11 11 11 11 12 12 12 12 12
4 4 4 5 5 5 5 5 5 6 5 5 6 6 5 4 4 4 4 4 4 5 5 4 3 3 3 4 5 6 6 7 9 10 11 11 11 11 11 11 11 10 9
4 4 4 4 4 4 4 4 4 5 5 5 4 5 5 4 3 3 3 4 4 5 5 4 4 4 5 5 6 7 6 8 10 10 10 10 9 9 8 8 8 9 8
4 4 4 4 4 4 4 3 3 3 4 4 4 4 4 4 3 3 3 3 3 4 5 4 4 4 5 6 5 6 6 6 5 7 8 8 8 7 7 7 7 8 8
3 3 3 3 3 3 3 3 3 3 3 3 3 3 3 2 3 3 2 3 3 3 4 4 4 4 5 5 6 6 6 5 5 6 8 8 7 6 7 7 7 7 7
3 3 3 3 3 3 3 3 3 2 2 3 3 3 2 2 3 2 2 3 2 2 2 3 4 4 4 4 5 6 6 5 5 5 6 6 5 6 7 7 7 5 5
3 2 3 2 2 2 2 2 2 2 2 2 2 2 2 2 2 2 2 2 2 2 2 2 3 3 4 4 4 5 5 5 5 4 5 5 5 6 6 7 6 5 5
2 2 2 2 2 2 1 1 1 1 1 1 1 1 2 2 2 2 2 2 2 2 2 2 3 3 3 3 4 4 5 5 5 4 5 4 4 4 4 5 5 5 6
2 2 2 2 1 1 1 1 1 0 1 1 1 1 1 1 1 1 2 2 3 3 3 3 3 4 4 4 4 4 4 4 4 4 5 5 4 4 4 4 4 5 5
2 1 1 1 1 2 3 2 2 0 0 1 1 1 1 1 1 1 2 3 3 4 4 4 4 4 4 4 4 5 5 4 5 5 5 5 4 4 4 3 4 5 5
1 1 1 1 1 2 3 3 3 1 1 1 1 1 1 1 1 1 2 2 3 3 4 3 3 4 4 4 4 5 5 4 4 4 4 4 4 4 4 4 4 5 5
1 0 0 1 1 1 3 3 2 1 1 2 2 1 0 0 1 1 1 1 2 3 4 4 3 3 4 5 5 3 3 3 3 3 3 3 4 4 4 4 3 4 4
0 1 1 1 1 2 3 3 3 1 1 2 2 2 1 1 1 2 1 1 1 2 2 3 3 3 3 4 5 4 3 3 3 3 3 3 3 4 4 3 4 4 4
Wind_Direction
264 269 275 275 270 271 262 257 260 255 254 257 248 244 242 242 242 239 231 215 239 249 249 249 248 246 246 246 243 240 241 245 246 245 241 236 234 234 237 239 240 242 242
264 266 267 268 270 272 273 264 262 260 255 255 254 247 247 246 244 241 243 224 227 244 251 250 250 250 249 249 248 245 245 246 248 249 249 247 243 239 238 239 241 242 243
267 269 269 268 272 274 273 266 261 260 260 258 256 251 247 246 249 245 242 243 234 233 244 251 252 253 254 254 252 249 249 250 251 252 252 254 253 249 244 242 243 243 244
264 270 268 268 272 273 273 266 261 261 260 261 261 254 248 244 249 249 244 243 245 246 242 248 253 254 256 256 256 253 253 254 255 254 255 254 258 255 251 249 246 246 245
261 262 265 269 267 265 265 266 261 263 266 264 263 259 252 247 248 245 245 245 246 249 254 246 248 253 256 258 259 259 259 260 261 261 260 258 259 260 255 253 251 249 248
260 259 259 265 266 263 264 264 267 264 265 268 270 268 261 253 245 242 245 245 246 248 254 254 247 242 249 259 264 264 265 265 266 267 267 266 262 262 257 256 254 254 251
255 254 258 257 254 254 260 266 267 267 265 266 272 277 266 254 247 238 243 249 248 250 249 249 253 261 253 250 259 266 269 271 271 272 272 272 270 270 262 258 257 254 254
255 250 252 254 250 250 252 255 258 257 265 254 261 277 268 252 236 247 241 241 249 251 254 259 257 261 271 265 255 261 271 274 273 274 275 276 273 272 268 261 258 256 254
258 255 255 254 250 247 248 249 249 246 251 255 244 254 261 260 289 240 239 238 243 251 255 258 260 264 267 271 272 259 267 275 276 276 276 276 273 276 270 264 262 257 255
257 250 251 251 249 247 246 246 245 245 241 245 246 248 266 277 271 275 252 246 258 260 259 256 257 259 261 265 270 282 279 279 278 279 279 279 275 276 278 268 265 262 257
259 256 252 250 248 246 247 245 246 243 239 241 241 242 253 260 256 264 274 271 267 263 265 261 260 264 262 262 267 280 290 286 284 285 286 284 282 278 283 275 268 264 262
264 258 257 253 250 246 244 243 243 242 242 243 244 238 238 243 246 253 264 268 272 274 267 263 258 260 263 266 266 278 283 289 288 287 288 286 284 284 285 280 276 272 265
269 267 265 261 255 251 247 242 241 240 241 242 244 242 240 246 248 252 254 270 283 289 282 270 260 259 263 272 273 279 277 282 288 290 288 287 284 287 288 280 279 275 267
266 270 267 265 265 261 253 243 242 240 241 241 244 244 240 246 246 249 250 262 279 284 281 282 287 277 278 283 291 282 276 280 286 290 290 285 283 283 284 280 281 276 269
264 262 264 263 261 258 255 249 241 239 239 241 242 243 241 243 246 250 250 246 253 270 275 289 296 299 303 299 294 285 285 287 287 289 288 287 281 278 277 278 282 278 273
263 258 258 258 260 256 252 247 246 233 235 240 241 240 241 244 244 247 246 250 254 260 273 294 302 304 300 293 295 293 293 289 281 282 283 288 287 279 281 281 282 277 273
263 258 258 256 258 258 252 244 243 233 234 242 243 240 241 246 246 248 247 244 251 255 263 288 299 302 297 300 304 302 302 301 298 293 292 293 294 294 288 286 287 280 278
261 264 262 253 252 249 248 244 240 231 234 239 244 243 242 245 250 253 251 247 254 262 257 275 292 297 300 307 307 307 309 310 307 319 305 299 298 301 297 290 289 284 282
256 266 264 260 257 252 247 244 240 226 231 238 242 244 246 245 255 261 263 257 261 274 271 264 283 296 303 310 310 309 310 308 312 319 312 308 306 307 305 296 289 282 280
254 270 272 272 263 251 247 243 237 226 234 242 246 255 256 251 258 267 265 258 258 266 266 268 283 296 303 309 304 311 315 320 320 317 318 314 311 304 306 301 289 280 275
258 268 277 284 277 254 240 248 245 239 250 249 262 278 287 283 282 277 272 263 261 264 272 277 282 292 298 303 304 310 308 319 321 324 317 316 312 309 307 300 283 282 283
257 274 286 293 303 319 329 290 278 218 274 269 284 321 333 336 320 291 291 307 305 279 271 278 282 283 295 301 307 306 311 317 316 334 327 316 313 306 303 301 302 293 287
253 271 299 319 334 6 30 52 42 350 271 287 296 321 330 339 326 351 27 7 352 334 304 284 282 292 296 302 304 305 308 309 307 321 320 311 318 315 320 322 323 310 300
244 258 306 334 349 17 33 41 39 20 4 348 325 301 288 312 347 10 9 359 352 352 338 325 313 314 319 316 305 301 301 307 306 311 316 301 315 318 325 320 334 320 311
277 269 13 11 2 19 39 44 32 35 35 6 351 347 334 298 66 330 332 346 353 359 19 22 7 350 343 337 321 309 304 304 306 313 329 309 315 324 322 325 346 349 332
299 70 60 44 28 26 38 41 32 62 48 15 4 2 20 51 29 334 316 324 330 333 342 349 354 352 342 347 338 320 304 296 297 305 337 325 315 330 327 331 341 346 355